Flag for Germany Weather past 2 weeks in Altenburg, Thuringia, Germany

Now
60 °F

Light rain. Overcast.


Feels Like: 61 °F
Forecast: 47 / 56 °F
Wind: 3 mph from Southwest

Location: Gera-Leumnitz

Current Time: May 25, 2015 at 6:11:41 PM

Latest Report: May 25, 2015 at 5:00 PM


Visibility: 15 mi

Pressure: 29.88 "Hg

Humidity: 71%

Dew point: 50 °F

Location of AltenburgLocation

Historic Weather in Altenburg — Graph

°F

Altenburg temperature yesterday

Maximum temperature yesterday: 64 °F (at 6:00 PM)
Minimum temperature yesterday: 51 °F (at 4:00 AM)
Average temperature yesterday: 57 °F

Past Weeks' High & Low Weather Summary

 TemperatureHumidityPressure
High79 °F (May 12, 3:00 PM)96% (May 21, 12:00 AM)30.40 "Hg (May 21, 12:00 AM)
Low37 °F (May 22, 5:00 AM)26% (May 19, 5:00 PM)29.67 "Hg (May 18, 8:00 PM)
Average55 °F65%30.06 "Hg
* Reported May 10 5:00 PM — May 25 5:00 PM, Altenburg, Weather by CustomWeather, © 2015

Note: Actual official high and low records may vary slightly from our data, if they occured in-between our weather recording intervals... More about our weather records

Advertising

Altenburg weather history for previous 24 hours

 ConditionsComfort  
Time TempWeatherWind HumidityBarometerVisibility
5:00 PM
Mon, May 25
60 °FLight rain. Overcast.3 mph71%29.88 "Hg15 mi
4:00 PM60 °FOvercast.5 mph79%29.89 "Hg16 mi
3:00 PM59 °FOvercast.3 mph82%29.90 "Hg15 mi
2:00 PM58 °FLight rain. Overcast.3 mph84%29.92 "Hg14 mi
1:00 PM58 °FOvercast.5 mph84%29.93 "Hg14 mi
12:00 PM59 °FOvercast.3 mph77%29.93 "Hg14 mi
11:00 AM60 °FOvercast.3 mph75%29.94 "Hg14 mi
10:00 AM56 °FOvercast.5 mph79%29.96 "Hg19 mi
9:00 AM55 °FRain. Overcast.2 mph85%29.96 "Hg14 mi
8:00 AM55 °FOvercast.2 mph82%29.96 "Hg14 mi
7:00 AM55 °FOvercast.3 mph81%29.96 "Hg17 mi
6:00 AM54 °FOvercast.2 mph83%29.97 "Hg17 mi
5:00 AM53 °FOvercast.2 mph85%29.98 "Hg9 mi
4:00 AM53 °FOvercast.5 mph84%29.98 "Hg10 mi
3:00 AM53 °FOvercast.5 mph85%29.99 "Hg9 mi
2:00 AM53 °FOvercast.5 mph85%30.01 "Hg9 mi
1:00 AM54 °FOvercast.5 mph82%30.02 "Hg11 mi
12:00 AM55 °FOvercast.3 mph78%30.03 "Hg15 mi
11:00 PM
Sun, May 24
56 °FOvercast.3 mph76%30.04 "Hg14 mi
10:00 PM58 °FPassing clouds.3 mph69%30.04 "Hg25 mi
9:00 PM60 °FOvercast.2 mph67%30.03 "Hg25 mi
8:00 PM62 °FPartly sunny.2 mph62%30.03 "Hg25 mi
7:00 PM63 °FPartly sunny.2 mph57%30.03 "Hg25 mi
6:00 PM64 °FPartly sunny.1 mph52%30.04 "Hg22 mi
Weather by CustomWeather, © 2015

See weather overviewHow to use our weather pages